Location: Cactus School
(34.5700°N, 118.0931°W)
Time: 08:58:43
(UTC-07:00)

Vanguard 1 Rocket - Pass Details

Date: 26 April 2024
Orbit: 650 x 4220 km, 34.3° (Epoch: 22 May)

Event Time Altitude Azimuth Distance (km) Brightness Sun altitude
Rises 21:11:05 0° 279° (W) 3,173 11.4 -18.9°
Reaches altitude 10° 21:13:04 10° 276° (W) 2,404 10.5 -19.3°
Maximum altitude 21:18:29 68° 194° (SSW) 1,187 7.8 -20.2°
Enters shadow 21:22:38 32° 121° (ESE) 2,217 8.7 -20.9°
